Вернуться в каталог

ONEWEB-0411

АктивенСвязьPO
NORAD 51623·PAYLOAD·🇬🇧 United Kingdom

Запущен Feb 10, 2022 с Guiana Space Centre

Loading…

Ближайшие Пролёты (ближайшие 24 часа)

TLE

СвежийSource: CelesTrak SupGP

Эпоха: Sep 14, 2026, 14:29 UTC

1 51623C 22012B   26257.60396250 -.00000266  00000+0 -76414-3 0  2574
2 51623  87.8896  18.4690 0001358  90.0723  19.8879 13.10365409    16

Отслеживайте ONEWEB-0411 в реальном времени с AllMySat

Download on the App Store